BEIDOU-3 M6 (C22)

Last updated on Dec. 12, 2019, 4:25 a.m. UTC

1 43208U 18018B   19344.42374896  .00000080  00000-0  00000-0 0  9997
2 43208  55.1139 142.7354 0005631 307.1712  52.7706  1.86231692 12407
UTC
Height (km)
Latitude
Longitude
Inclination
Orbital Period
UTC large
Height (km)
Speed (km/s)
/
Latitude / Longitude
Inclination (degrees)
Orbital Period (minutes)
Azimuth
Elevation
Range (km)
Doppler Factor
iOS Compass Heading
iOS Angle

Next 30 passes for location: Hong Kong

Rise time Rise Azimuth (degrees) Set time Set Azimuth (degrees) Duration Max altitude (degrees)

No matching passes for this satellites